Flag for Kazakhstan Weather past 2 weeks in Astana, Kazakhstan

Now
68 °F

Partly sunny.


Feels Like: 68 °F
Forecast: 51 / 72 °F
Wind: 17 mph from West

Location: Astana

Current Time: Jul 24, 2014 at 5:27:46 PM

Latest Report: Jul 24, 2014 at 5:00 PM


Visibility: N/A

Pressure: 29.65 "Hg

Humidity: 43%

Dew point: 45 °F

Location of AstanaLocation

Historic Weather in Astana — Graph

°F

Astana temperature yesterday

Maximum temperature yesterday: 70 °F (at 4:30 PM)
Minimum temperature yesterday: 50 °F (at 5:00 AM)
Average temperature yesterday: 63 °F

Past Weeks' High & Low Weather Summary

 TemperatureHumidityPressure
High99 °F (Jul 11, 3:30 PM)94% (Jul 15, 1:00 AM)30.01 "Hg (Jul 15, 1:00 AM)
Low45 °F (Jul 22, 5:00 AM)11% (Jul 11, 1:30 PM)29.27 "Hg (Jul 24, 3:00 AM)
Average64 °F60%29.65 "Hg
* Reported Jul 9 4:00 PM — Jul 24 4:30 PM, Astana, Weather by CustomWeather, © 2014

Note: Actual official high and low records may vary slightly from our data, if they occured in-between our weather recording intervals... More about our weather records

Advertising

Astana weather history for previous 24 hours

 ConditionsComfort  
Time TempWeatherWind HumidityBarometerVisibility
4:30 PM
Jul 24
68 °FPartly sunny.15 mph43%29.65 "HgN/A
4:00 PM66 °FPartly sunny.13 mph52%29.65 "HgN/A
3:30 PM66 °FPartly sunny.15 mph49%29.65 "HgN/A
3:00 PM66 °FPartly sunny.15 mph49%29.65 "HgN/A
2:30 PM66 °FPartly sunny.15 mph52%29.62 "HgN/A
2:00 PM66 °FPartly sunny.13 mph52%29.62 "HgN/A
1:30 PM64 °FPartly sunny.15 mph52%29.62 "HgN/A
1:00 PM64 °FPartly sunny.15 mph56%29.59 "HgN/A
12:30 PM63 °FPartly sunny.17 mph59%29.59 "HgN/A
12:00 PM61 °FPartly sunny.15 mph63%29.59 "HgN/A
11:30 AM61 °FPartly sunny.15 mph63%29.59 "HgN/A
11:00 AM59 °FPartly sunny.15 mph68%29.56 "HgN/A
10:30 AM57 °FPartly sunny.15 mph72%29.56 "HgN/A
10:00 AM57 °FPartly sunny.17 mph72%29.53 "Hg6 mi
9:30 AM57 °FBroken clouds.17 mph72%29.53 "Hg6 mi
9:00 AM55 °FBroken clouds.20 mph77%29.50 "Hg6 mi
8:30 AM54 °FBroken clouds.17 mph82%29.50 "Hg6 mi
8:00 AM54 °FBroken clouds.17 mph88%29.47 "Hg6 mi
7:30 AM54 °FBroken clouds.17 mph88%29.45 "Hg6 mi
7:00 AM54 °FMostly cloudy.17 mph88%29.45 "Hg6 mi
6:30 AM54 °FLight rain. Mostly cloudy.17 mph88%29.42 "Hg6 mi
6:00 AM54 °FLight rain. Mostly cloudy.17 mph88%29.39 "Hg5 mi
5:30 AM52 °FLight rain. Mostly cloudy.17 mph94%29.39 "Hg3 mi
5:00 AM52 °FLight rain. Mostly cloudy.17 mph94%29.36 "Hg4 mi
4:30 AM54 °FSprinkles. Partly cloudy.17 mph88%29.33 "Hg4 mi
4:00 AM54 °FPartly cloudy.15 mph88%29.33 "HgN/A
3:30 AM54 °FPartly cloudy.17 mph88%29.30 "HgN/A
3:00 AM55 °FPartly cloudy.20 mph94%29.27 "HgN/A
2:30 AM55 °FSprinkles. Partly cloudy.22 mph88%29.30 "Hg6 mi
2:00 AM55 °FSprinkles. Partly cloudy.22 mph88%29.30 "Hg4 mi
1:30 AM55 °FRain showers. Partly cloudy.17 mph94%29.30 "Hg1 mi
1:00 AM57 °FSprinkles. Mostly cloudy.17 mph82%29.33 "Hg3 mi
12:30 AM64 °FSprinkles. Overcast.20 mph46%29.30 "HgN/A
12:00 AM63 °FOvercast.13 mph56%29.33 "HgN/A
11:30 PM
Jul 23
63 °FOvercast.13 mph56%29.36 "HgN/A
11:00 PM63 °FOvercast.10 mph56%29.36 "HgN/A
10:30 PM63 °FMostly cloudy.13 mph56%29.39 "HgN/A
10:00 PM61 °FMostly cloudy.10 mph63%29.39 "HgN/A
9:30 PM63 °FMostly cloudy.8 mph56%29.39 "HgN/A
9:00 PM63 °FBroken clouds.8 mph56%29.42 "HgN/A
8:30 PM64 °FBroken clouds.8 mph52%29.42 "HgN/A
8:00 PM64 °FBroken clouds.13 mph52%29.42 "HgN/A
7:00 PM63 °FSprinkles. Broken clouds.17 mph64%29.45 "Hg6 mi
5:30 PM70 °FPartly sunny.24 mph38%29.45 "HgN/A
5:00 PM70 °FPartly sunny.26 mph38%29.45 "HgN/A
Weather by CustomWeather, © 2014

See weather overviewHow to use our weather pages